Home > Weather > Bytom > Past weeks

Flag for Poland Weather for the Past 2 Weeks in Bytom, Poland

Now
50 °F

Passing clouds.


Feels Like: 45 °F
Forecast: 39 / 45 °F
Wind: 15 mph from Southwest

Location: Katowice Airport

Current Time: Feb 14, 2016 at 2:01:24 PM

Latest Report: Feb 14, 2016 at 1:30 PM


Visibility: N/A

Pressure: 29.30 "Hg

Humidity: 58%

Dew point: 36 °F

Location of BytomLocation

Historic Weather in Bytom — Graph

°F

Bytom Temperature Yesterday

Maximum temperature yesterday: 39 °F (at 2:00 PM)
Minimum temperature yesterday: 32 °F (at 1:00 AM)
Average temperature yesterday: 36 °F

High & Low Weather Summary for the Past Weeks

 TemperatureHumidityPressure
High54 °F (Jan 30, 2:00 PM)100% (Jan 31, 6:30 AM)30.27 "Hg (Jan 31, 6:30 AM)
Low30 °F (Feb 4, 12:30 AM)44% (Jan 30, 2:30 PM)29.24 "Hg (Feb 10, 3:30 AM)
Average39 °F81%29.75 "Hg
* Reported Jan 30 1:00 PM — Feb 14 1:00 PM, Bytom, Weather by CustomWeather, © 2016

Note: Actual official high and low records may vary slightly from our data, if they occured in-between our weather recording intervals... More about our weather records

Advertising

Bytom Weather History for the Previous 24 Hours

 ConditionsComfort  
Time TempWeatherWind HumidityBarometerVisibility
1:00 PM
Sun, Feb 14
48 °FPassing clouds.13 mph66%29.30 "HgN/A
12:30 PM46 °FPassing clouds.13 mph71%29.30 "HgN/A
12:00 PM46 °FScattered clouds.13 mph71%29.30 "HgN/A
11:30 AM43 °FPassing clouds.9 mph76%29.30 "HgN/A
11:00 AM41 °FScattered clouds.8 mph87%29.30 "HgN/A
10:30 AM39 °FPartly sunny.7 mph93%29.30 "HgN/A
10:00 AM41 °FScattered clouds.10 mph81%29.30 "HgN/A
9:30 AM37 °FClear.8 mph100%29.30 "Hg4 mi
9:00 AM36 °FClear.9 mph100%29.30 "Hg4 mi
8:30 AM34 °FFog.8 mph100%29.30 "Hg2 mi
8:00 AM34 °FFog.9 mph100%29.27 "Hg2 mi
7:30 AM32 °FSleet. Cloudy.10 mph100%29.27 "Hg1 mi
7:00 AM32 °FFog.9 mph100%29.27 "Hg0 mi
6:30 AM32 °FFog.6 mph100%29.30 "Hg0 mi
6:00 AM34 °FFog.7 mph100%29.27 "Hg0 mi
5:30 AM34 °FFog.7 mph100%29.30 "Hg0 mi
5:00 AM34 °FFog.6 mph100%29.30 "Hg0 mi
4:30 AM34 °FFog.6 mph100%29.30 "Hg0 mi
4:00 AM36 °FFog.7 mph93%29.30 "Hg0 mi
3:30 AM36 °FFog.6 mph93%29.30 "Hg0 mi
3:00 AM36 °FFog.6 mph93%29.30 "Hg0 mi
2:30 AM36 °FFog.6 mph93%29.30 "Hg0 mi
2:00 AM36 °FFog.5 mph100%29.30 "Hg1 mi
1:30 AM36 °FFog.5 mph100%29.30 "Hg1 mi
1:00 AM36 °FFog.5 mph100%29.30 "Hg1 mi
12:30 AM36 °FFog.5 mph100%29.30 "Hg1 mi
12:00 AM36 °FFog.5 mph100%29.30 "Hg1 mi
11:30 PM
Sat, Feb 13
37 °FFog.3 mph93%29.33 "Hg1 mi
11:00 PM37 °FFog.3 mph100%29.33 "Hg1 mi
10:30 PM37 °FFog.6 mph93%29.33 "Hg1 mi
10:00 PM37 °FFog.1 mph93%29.33 "Hg1 mi
9:30 PM37 °FFog.2 mph93%29.33 "Hg1 mi
9:00 PM37 °FFog.5 mph93%29.33 "Hg1 mi
8:30 PM37 °FFog.2 mph93%29.33 "Hg1 mi
8:00 PM37 °FFog.2 mph93%29.33 "Hg1 mi
7:30 PM37 °FDrizzle. Fog.2 mph93%29.36 "Hg1 mi
7:00 PM37 °FDrizzle. Fog.1 mph93%29.36 "Hg1 mi
6:30 PM37 °FDrizzle. Fog.3 mph93%29.36 "Hg1 mi
6:00 PM37 °FFog.1 mph93%29.36 "Hg3 mi
5:30 PM37 °FFog.1 mph100%29.36 "Hg2 mi
5:00 PM37 °FFog.3 mph100%29.33 "Hg2 mi
4:30 PM37 °FDrizzle. Fog.5 mph100%29.33 "Hg1 mi
4:00 PM37 °FDrizzle. Fog.3 mph100%29.33 "Hg2 mi
3:30 PM37 °FLight rain. Fog.5 mph100%29.36 "Hg2 mi
3:00 PM37 °FLight rain. Fog.5 mph100%29.36 "Hg2 mi
2:30 PM39 °FLight rain. Broken clouds.3 mph93%29.36 "Hg4 mi
2:00 PM39 °FLight rain. Broken clouds.3 mph87%29.36 "Hg4 mi
Weather by CustomWeather, © 2016

See weather overviewHow to use our weather pages